RYR39ZU LEMI-EGPK

Flight info

Callsign RYR39ZU
Flight time 2h 45m
Altitude 34000
Route ALT N851 MITOS N608 COMPI Y90 USKAR N863 GIROM DCT GONUP DCT TUPAR UN861 ANG DCT AKIKI UN867 VASUX DCT TNT UN57 POL UN601 RIBEL DCT SHAPP DCT ASLIB DCT TRN
Aircraft B738/M-SDE2E3FGHIRWXY/LB1

Departure

Time 2026-05-08 13:07
Airport Region of Murcia International Airport (LEMI)

Arrival

Time 2026-05-08 15:53
Airport Glasgow Prestwick Airport (EGPK)
Time Latitude Longitude Altitude Speed Heading
2026-05-08 12:54 37.80320 -1.13156 653 ft 0 kts 315°
2026-05-08 12:58 37.80316 -1.13152 653 ft 2 kts 315°
2026-05-08 12:58 37.80306 -1.13138 652 ft 2 kts 315°
2026-05-08 12:59 37.80295 -1.13125 652 ft 2 kts 315°
2026-05-08 12:59 37.80288 -1.13116 651 ft 2 kts 313°
2026-05-08 12:59 37.80281 -1.13100 650 ft 2 kts 279°
2026-05-08 12:59 37.80281 -1.13081 650 ft 2 kts 254°
2026-05-08 13:00 37.80287 -1.13064 649 ft 1 kts 230°
2026-05-08 13:00 37.80292 -1.13058 649 ft 1 kts 223°
2026-05-08 13:00 37.80294 -1.13056 649 ft 0 kts 225°
2026-05-08 13:02 37.80293 -1.13058 649 ft 1 kts 225°
2026-05-08 13:02 37.80275 -1.13080 649 ft 6 kts 225°
2026-05-08 13:03 37.80236 -1.13131 651 ft 9 kts 226°
2026-05-08 13:03 37.80184 -1.13156 651 ft 8 kts 167°
2026-05-08 13:03 37.80133 -1.13103 647 ft 11 kts 136°
2026-05-08 13:03 37.80065 -1.13100 644 ft 11 kts 217°
2026-05-08 13:04 37.80011 -1.13170 645 ft 11 kts 225°
2026-05-08 13:04 37.79947 -1.13251 645 ft 14 kts 225°
2026-05-08 13:04 37.79870 -1.13351 646 ft 17 kts 225°
2026-05-08 13:04 37.79774 -1.13473 645 ft 21 kts 225°
2026-05-08 13:05 37.79672 -1.13605 643 ft 20 kts 225°
2026-05-08 13:05 37.79574 -1.13732 641 ft 19 kts 227°
2026-05-08 13:05 37.79503 -1.13779 638 ft 10 kts 166°
2026-05-08 13:05 37.79449 -1.13721 637 ft 9 kts 135°
2026-05-08 13:06 37.79409 -1.13661 636 ft 6 kts 107°
2026-05-08 13:06 37.79435 -1.13603 636 ft 13 kts 48°
2026-05-08 13:06 37.79600 -1.13388 638 ft 65 kts 46°
2026-05-08 13:06 37.80077 -1.12776 635 ft 128 kts 46°
2026-05-08 13:07 37.80837 -1.11801 639 ft 179 kts 46°
2026-05-08 13:07 37.81719 -1.10690 1287 ft 176 kts 47°
2026-05-08 13:07 37.82625 -1.09659 1931 ft 182 kts 39°
2026-05-08 13:07 37.83632 -1.08623 2427 ft 191 kts 42°
2026-05-08 13:08 37.84661 -1.07448 2782 ft 206 kts 44°
2026-05-08 13:08 37.85733 -1.06194 3257 ft 215 kts 45°
2026-05-08 13:08 37.86843 -1.04871 3607 ft 232 kts 44°
2026-05-08 13:08 37.88088 -1.03398 3932 ft 251 kts 44°
2026-05-08 13:09 37.89390 -1.01835 4284 ft 270 kts 44°
2026-05-08 13:09 37.90753 -1.00177 4975 ft 272 kts 44°
2026-05-08 13:09 37.92157 -0.98486 5544 ft 281 kts 43°
2026-05-08 13:09 37.93582 -0.96772 6184 ft 286 kts 42°
2026-05-08 13:10 37.95032 -0.95037 6853 ft 290 kts 43°
2026-05-08 13:10 37.96514 -0.93259 7442 ft 296 kts 42°
2026-05-08 13:10 37.98029 -0.91439 8069 ft 301 kts 42°
2026-05-08 13:10 37.99563 -0.89603 8651 ft 308 kts 42°
2026-05-08 13:11 38.01149 -0.87706 9268 ft 313 kts 42°
2026-05-08 13:11 38.02746 -0.85793 9788 ft 320 kts 43°
2026-05-08 13:11 38.04360 -0.83860 10420 ft 324 kts 42°
2026-05-08 13:11 38.06055 -0.81837 10697 ft 341 kts 42°
2026-05-08 13:12 38.07823 -0.79724 10994 ft 357 kts 42°
2026-05-08 13:12 38.09671 -0.77514 11358 ft 370 kts 42°
2026-05-08 13:12 38.11576 -0.75243 11919 ft 376 kts 42°
2026-05-08 13:12 38.13500 -0.72960 12555 ft 380 kts 41°
2026-05-08 13:13 38.15430 -0.70677 13240 ft 382 kts 41°
2026-05-08 13:13 38.17384 -0.68383 13824 ft 387 kts 38°
2026-05-08 13:13 38.19644 -0.66494 14422 ft 388 kts 22°
2026-05-08 13:13 38.22162 -0.65170 15014 ft 391 kts 17°
2026-05-08 13:14 38.24735 -0.63951 15623 ft 396 kts 17°
2026-05-08 13:14 38.27301 -0.62669 16291 ft 399 kts 18°
2026-05-08 13:14 38.29875 -0.61298 16890 ft 403 kts 19°
2026-05-08 13:14 38.32458 -0.59875 17445 ft 409 kts 20°
2026-05-08 13:15 38.35105 -0.58392 17997 ft 414 kts 19°
2026-05-08 13:15 38.37756 -0.56899 18564 ft 418 kts 20°
2026-05-08 13:15 38.40416 -0.55398 19228 ft 419 kts 20°
2026-05-08 13:15 38.43091 -0.53889 19726 ft 424 kts 20°
2026-05-08 13:16 38.45816 -0.52350 20357 ft 425 kts 20°
2026-05-08 13:16 38.48535 -0.50811 20825 ft 431 kts 19°
2026-05-08 13:16 38.51301 -0.49249 21333 ft 435 kts 19°
2026-05-08 13:16 38.54067 -0.47686 21892 ft 437 kts 19°
2026-05-08 13:17 38.56893 -0.46088 22348 ft 442 kts 19°
2026-05-08 13:17 38.59706 -0.44487 22858 ft 445 kts 19°
2026-05-08 13:17 38.62557 -0.42856 23364 ft 448 kts 19°
2026-05-08 13:17 38.65416 -0.41228 23807 ft 451 kts 19°
2026-05-08 13:18 38.68283 -0.39591 24335 ft 453 kts 19°
2026-05-08 13:18 38.71175 -0.37934 24608 ft 460 kts 19°
2026-05-08 13:18 38.74092 -0.36260 25229 ft 459 kts 19°
2026-05-08 13:18 38.77029 -0.34578 25491 ft 466 kts 20°
2026-05-08 13:19 38.80020 -0.32859 25997 ft 466 kts 20°
2026-05-08 13:19 38.82965 -0.31165 26390 ft 469 kts 19°
2026-05-08 13:19 38.85985 -0.29434 26771 ft 472 kts 19°
2026-05-08 13:19 38.88952 -0.27733 27221 ft 473 kts 19°
2026-05-08 13:20 38.91962 -0.25998 27520 ft 477 kts 19°
2026-05-08 13:20 38.94992 -0.24248 27881 ft 480 kts 19°
2026-05-08 13:20 38.98064 -0.22469 28318 ft 481 kts 19°
2026-05-08 13:20 39.01102 -0.20716 28685 ft 483 kts 19°
2026-05-08 13:21 39.04190 -0.18927 29006 ft 486 kts 19°
2026-05-08 13:21 39.07264 -0.17142 29464 ft 486 kts 19°
2026-05-08 13:21 39.10357 -0.15351 29704 ft 490 kts 19°
2026-05-08 13:21 39.13521 -0.13524 30083 ft 491 kts 19°
2026-05-08 13:22 39.16618 -0.11723 30525 ft 489 kts 19°
2026-05-08 13:22 39.19717 -0.09916 31012 ft 486 kts 19°
2026-05-08 13:22 39.22772 -0.08136 31335 ft 487 kts 19°
2026-05-08 13:22 39.25870 -0.06333 31627 ft 488 kts 19°
2026-05-08 13:23 39.28964 -0.04525 32120 ft 484 kts 19°
2026-05-08 13:23 39.32001 -0.02753 32498 ft 483 kts 19°
2026-05-08 13:23 39.35077 -0.01040 32847 ft 479 kts 15°
2026-05-08 13:23 39.38236 0.00350 33134 ft 476 kts 11°
2026-05-08 13:24 39.41412 0.01552 33358 ft 477 kts 10°
2026-05-08 13:24 39.44644 0.02714 33706 ft 476 kts
2026-05-08 13:24 39.47797 0.03840 33941 ft 476 kts
2026-05-08 13:24 39.51017 0.04999 33977 ft 479 kts 10°
2026-05-08 13:25 39.57430 0.07337 33971 ft 476 kts 11°
2026-05-08 13:25 39.63779 0.09675 33980 ft 475 kts 10°
2026-05-08 13:26 39.70146 0.12044 33969 ft 475 kts 11°
2026-05-08 13:26 39.76474 0.14386 33967 ft 476 kts 11°
2026-05-08 13:27 39.82853 0.16767 33974 ft 474 kts 11°
2026-05-08 13:27 39.89185 0.19133 33972 ft 474 kts 10°
2026-05-08 13:28 39.95509 0.21493 33968 ft 475 kts 11°
2026-05-08 13:28 40.01889 0.23901 33978 ft 474 kts 11°
2026-05-08 13:29 40.08218 0.26283 33973 ft 474 kts 11°
2026-05-08 13:29 40.14555 0.28653 33966 ft 474 kts 11°
2026-05-08 13:30 40.20897 0.31040 33967 ft 474 kts 12°
2026-05-08 13:30 40.27240 0.33431 33967 ft 476 kts 12°
2026-05-08 13:31 40.33561 0.35820 33967 ft 475 kts 12°
2026-05-08 13:31 40.39895 0.38245 33961 ft 474 kts 12°
2026-05-08 13:32 40.46242 0.40657 33960 ft 474 kts 12°
2026-05-08 13:32 40.52596 0.43072 33959 ft 474 kts 12°
2026-05-08 13:33 40.58916 0.45486 33962 ft 473 kts 12°
2026-05-08 13:33 40.65243 0.47909 33958 ft 473 kts 12°
2026-05-08 13:34 40.71577 0.50335 33956 ft 474 kts 12°
2026-05-08 13:34 40.77930 0.52761 33955 ft 474 kts 12°
2026-05-08 13:35 40.84248 0.55186 33957 ft 473 kts 13°
2026-05-08 13:35 40.90564 0.57629 33948 ft 474 kts 12°
2026-05-08 13:36 40.96910 0.60074 33956 ft 473 kts 12°
2026-05-08 13:36 41.03232 0.62533 33959 ft 472 kts 13°
2026-05-08 13:37 41.09518 0.64976 33972 ft 472 kts 13°
2026-05-08 13:37 41.15821 0.67415 33977 ft 473 kts 14°
2026-05-08 13:38 41.22115 0.69906 33984 ft 471 kts 14°
2026-05-08 13:38 41.28418 0.72376 33988 ft 472 kts 14°
2026-05-08 13:39 41.34757 0.74852 33994 ft 472 kts 14°
2026-05-08 13:39 41.41046 0.77335 33995 ft 472 kts 14°
2026-05-08 13:40 41.47301 0.79795 33994 ft 471 kts 14°
2026-05-08 13:40 41.53584 0.82253 33986 ft 468 kts 14°
2026-05-08 13:41 41.59840 0.84708 33984 ft 470 kts 14°
2026-05-08 13:41 41.66127 0.87195 33988 ft 468 kts 15°
2026-05-08 13:42 41.72386 0.89677 33989 ft 467 kts 15°
2026-05-08 13:42 41.78611 0.92139 33987 ft 467 kts 15°
2026-05-08 13:43 41.84829 0.94606 33992 ft 466 kts 15°
2026-05-08 13:43 41.91032 0.97079 34003 ft 466 kts 15°
2026-05-08 13:44 41.97253 0.99562 34008 ft 466 kts 15°
2026-05-08 13:44 42.03470 1.02065 34013 ft 466 kts 15°
2026-05-08 13:45 42.09696 1.04550 34005 ft 464 kts 15°
2026-05-08 13:45 42.16011 1.06253 33998 ft 462 kts
2026-05-08 13:46 42.22394 1.05826 34004 ft 461 kts 352°
2026-05-08 13:46 42.28802 1.04968 33997 ft 460 kts 353°
2026-05-08 13:47 42.35155 1.04231 34000 ft 460 kts 353°
2026-05-08 13:47 42.41583 1.03537 34002 ft 462 kts 354°
2026-05-08 13:48 42.47981 1.02862 33991 ft 460 kts 353°
2026-05-08 13:48 42.54360 1.02120 33966 ft 461 kts 354°
2026-05-08 13:49 42.60737 1.01428 33967 ft 462 kts 354°
2026-05-08 13:49 42.67147 1.00707 33975 ft 460 kts 354°
2026-05-08 13:50 42.73528 0.99986 33974 ft 462 kts 355°
2026-05-08 13:50 42.79897 0.98796 33970 ft 459 kts 346°
2026-05-08 13:51 42.86103 0.96689 33976 ft 460 kts 344°
2026-05-08 13:51 42.92307 0.94530 33974 ft 460 kts 345°
2026-05-08 13:52 42.98501 0.92382 33957 ft 461 kts 345°
2026-05-08 13:52 43.04733 0.90216 33944 ft 462 kts 345°
2026-05-08 13:53 43.10943 0.88043 33931 ft 461 kts 345°
2026-05-08 13:53 43.17169 0.85879 33929 ft 460 kts 345°
2026-05-08 13:54 43.23354 0.83738 33919 ft 459 kts 345°
2026-05-08 13:54 43.29532 0.81595 33917 ft 458 kts 345°
2026-05-08 13:55 43.35735 0.79402 33912 ft 459 kts 344°
2026-05-08 13:56 43.44960 0.76154 33907 ft 457 kts 345°
2026-05-08 13:56 43.51093 0.73680 33903 ft 459 kts 340°
2026-05-08 13:57 43.57106 0.70873 33902 ft 457 kts 340°
2026-05-08 13:57 43.63156 0.68074 33909 ft 458 kts 340°
2026-05-08 13:58 43.69194 0.65290 33909 ft 457 kts 340°
2026-05-08 13:58 43.75211 0.62504 33910 ft 456 kts 340°
2026-05-08 13:59 43.81240 0.59742 33910 ft 456 kts 340°
2026-05-08 13:59 43.87284 0.56976 33908 ft 455 kts 341°
2026-05-08 14:00 43.93287 0.54210 33909 ft 456 kts 340°
2026-05-08 14:00 43.99317 0.51419 33910 ft 455 kts 340°
2026-05-08 14:01 44.05303 0.48637 33913 ft 455 kts 340°
2026-05-08 14:01 44.11319 0.45825 33910 ft 455 kts 341°
2026-05-08 14:02 44.17345 0.43013 33910 ft 454 kts 340°
2026-05-08 14:02 44.23350 0.40226 33914 ft 454 kts 340°
2026-05-08 14:03 44.29346 0.37437 33917 ft 454 kts 340°
2026-05-08 14:03 44.35339 0.34652 33914 ft 455 kts 340°
2026-05-08 14:04 44.41320 0.31837 33913 ft 454 kts 340°
2026-05-08 14:04 44.47310 0.28990 33910 ft 454 kts 339°
2026-05-08 14:05 44.53271 0.26174 33909 ft 453 kts 340°
2026-05-08 14:05 44.59238 0.23395 33910 ft 453 kts 340°
2026-05-08 14:06 44.65246 0.20586 33911 ft 453 kts 339°
2026-05-08 14:06 44.71229 0.17768 33911 ft 452 kts 339°
2026-05-08 14:07 44.77187 0.14946 33912 ft 453 kts 339°
2026-05-08 14:07 44.83154 0.12093 33910 ft 452 kts 339°
2026-05-08 14:08 44.89143 0.09194 33907 ft 454 kts 339°
2026-05-08 14:08 44.95102 0.06321 33910 ft 457 kts 339°
2026-05-08 14:09 45.01196 0.03389 33905 ft 461 kts 339°
2026-05-08 14:09 45.07280 0.00460 33897 ft 465 kts 339°
2026-05-08 14:10 45.13408 -0.02496 33890 ft 465 kts 339°
2026-05-08 14:10 45.19542 -0.05466 33894 ft 468 kts 339°
2026-05-08 14:11 45.25728 -0.08462 33894 ft 470 kts 339°
2026-05-08 14:11 45.31877 -0.11443 33898 ft 468 kts 339°
2026-05-08 14:12 45.37937 -0.14382 33905 ft 460 kts 339°
2026-05-08 14:12 45.44004 -0.17299 33907 ft 456 kts 339°
2026-05-08 14:13 45.50010 -0.20209 33909 ft 460 kts 339°
2026-05-08 14:13 45.56031 -0.23171 33911 ft 450 kts 339°
2026-05-08 14:14 45.61901 -0.26047 33915 ft 446 kts 339°
2026-05-08 14:14 45.67780 -0.28906 33917 ft 448 kts 339°
2026-05-08 14:15 45.73635 -0.31792 33916 ft 448 kts 339°
2026-05-08 14:15 45.79505 -0.34711 33918 ft 446 kts 338°
2026-05-08 14:16 45.85402 -0.37629 33921 ft 446 kts 338°
2026-05-08 14:16 45.91277 -0.40540 33919 ft 447 kts 339°
2026-05-08 14:17 45.97165 -0.43457 33925 ft 446 kts 339°
2026-05-08 14:17 46.03034 -0.46376 33925 ft 447 kts 338°
2026-05-08 14:18 46.08889 -0.49290 33922 ft 447 kts 339°
2026-05-08 14:18 46.14742 -0.52222 33920 ft 447 kts 339°
2026-05-08 14:19 46.20635 -0.55176 33919 ft 447 kts 339°
2026-05-08 14:19 46.26516 -0.58106 33915 ft 446 kts 339°
2026-05-08 14:20 46.32330 -0.61046 33917 ft 444 kts 338°
2026-05-08 14:20 46.38180 -0.64014 33916 ft 445 kts 338°
2026-05-08 14:21 46.44155 -0.66282 33920 ft 448 kts 348°
2026-05-08 14:21 46.50324 -0.67523 33919 ft 447 kts 350°
2026-05-08 14:22 46.56490 -0.68607 33926 ft 447 kts 350°
2026-05-08 14:22 46.62641 -0.69690 33928 ft 446 kts 351°
2026-05-08 14:23 46.68813 -0.70759 33931 ft 446 kts 350°
2026-05-08 14:23 46.74941 -0.71805 33933 ft 446 kts 350°
2026-05-08 14:24 46.81141 -0.72846 33939 ft 446 kts 350°
2026-05-08 14:24 46.87286 -0.73893 33935 ft 444 kts 350°
2026-05-08 14:25 46.93408 -0.74928 33940 ft 443 kts 350°
2026-05-08 14:25 46.99515 -0.75950 33935 ft 442 kts 350°
2026-05-08 14:26 47.05618 -0.76977 33934 ft 443 kts 350°
2026-05-08 14:26 47.11757 -0.78022 33944 ft 442 kts 350°
2026-05-08 14:27 47.17839 -0.79074 33943 ft 441 kts 349°
2026-05-08 14:27 47.23928 -0.80129 33946 ft 439 kts 350°
2026-05-08 14:28 47.30018 -0.81168 33947 ft 440 kts 349°
2026-05-08 14:28 47.36100 -0.82239 33946 ft 440 kts 349°
2026-05-08 14:29 47.42164 -0.83307 33952 ft 439 kts 349°
2026-05-08 14:29 47.48186 -0.84354 33937 ft 438 kts 349°
2026-05-08 14:30 47.54229 -0.85394 33943 ft 437 kts 349°
2026-05-08 14:30 47.60198 -0.86870 33943 ft 435 kts 346°
2026-05-08 14:31 47.66172 -0.88509 33945 ft 434 kts 346°
2026-05-08 14:31 47.72102 -0.90133 33946 ft 433 kts 346°
2026-05-08 14:32 47.80952 -0.92509 33948 ft 431 kts 346°
2026-05-08 14:32 47.86826 -0.94095 33952 ft 433 kts 346°
2026-05-08 14:33 47.92746 -0.95671 33957 ft 430 kts 346°
2026-05-08 14:33 47.98634 -0.97257 33959 ft 430 kts 346°
2026-05-08 14:34 48.04494 -0.98844 33962 ft 429 kts 346°
2026-05-08 14:34 48.10385 -1.00449 33962 ft 428 kts 346°
2026-05-08 14:35 48.16240 -1.02030 33961 ft 429 kts 346°
2026-05-08 14:35 48.22116 -1.03616 33962 ft 429 kts 346°
2026-05-08 14:36 48.27971 -1.05188 33965 ft 429 kts 346°
2026-05-08 14:36 48.33832 -1.06763 33970 ft 428 kts 346°
2026-05-08 14:37 48.39656 -1.08345 33967 ft 428 kts 346°
2026-05-08 14:37 48.45530 -1.09955 33970 ft 428 kts 346°
2026-05-08 14:38 48.51393 -1.11577 33974 ft 430 kts 346°
2026-05-08 14:38 48.57235 -1.13178 33976 ft 428 kts 346°
2026-05-08 14:39 48.63092 -1.14785 33975 ft 428 kts 345°
2026-05-08 14:39 48.68939 -1.16406 33979 ft 426 kts 345°
2026-05-08 14:40 48.74743 -1.18027 33980 ft 426 kts 345°
2026-05-08 14:40 48.80573 -1.19643 33978 ft 428 kts 345°
2026-05-08 14:41 48.86401 -1.21265 33983 ft 427 kts 345°
2026-05-08 14:41 48.92258 -1.22890 33987 ft 427 kts 345°
2026-05-08 14:42 48.98084 -1.24523 33988 ft 426 kts 345°
2026-05-08 14:42 49.03884 -1.26145 33989 ft 425 kts 345°
2026-05-08 14:43 49.09739 -1.27781 33990 ft 424 kts 345°
2026-05-08 14:43 49.15541 -1.29408 33989 ft 424 kts 345°
2026-05-08 14:44 49.21344 -1.31039 33991 ft 425 kts 345°
2026-05-08 14:44 49.27156 -1.32685 33993 ft 424 kts 345°
2026-05-08 14:45 49.32941 -1.34319 33995 ft 424 kts 345°
2026-05-08 14:45 49.38713 -1.35958 33991 ft 423 kts 345°
2026-05-08 14:46 49.44513 -1.37583 33994 ft 424 kts 345°
2026-05-08 14:46 49.50297 -1.39232 33999 ft 423 kts 345°
2026-05-08 14:47 49.56078 -1.40852 34011 ft 422 kts 348°
2026-05-08 14:47 49.61961 -1.41236 34020 ft 428 kts 357°
2026-05-08 14:48 49.67921 -1.40883 34022 ft 429 kts 358°
2026-05-08 14:48 49.73876 -1.40417 34023 ft 430 kts 359°
2026-05-08 14:49 49.79822 -1.39919 34021 ft 428 kts 358°
2026-05-08 14:49 49.85748 -1.39406 34022 ft 427 kts 359°
2026-05-08 14:50 49.91685 -1.38871 34024 ft 427 kts 358°
2026-05-08 14:50 49.97600 -1.38367 34027 ft 426 kts 358°
2026-05-08 14:51 50.03484 -1.37440 34030 ft 428 kts
2026-05-08 14:51 50.09375 -1.35918 34030 ft 429 kts
2026-05-08 14:52 50.18168 -1.33676 34032 ft 427 kts
2026-05-08 14:53 50.24052 -1.32207 34032 ft 428 kts
2026-05-08 14:53 50.29897 -1.30749 34031 ft 427 kts
2026-05-08 14:54 50.35713 -1.29297 34034 ft 426 kts
2026-05-08 14:54 50.41579 -1.27816 34033 ft 427 kts
2026-05-08 14:55 50.47417 -1.26358 34033 ft 424 kts
2026-05-08 14:55 50.53226 -1.26011 34038 ft 415 kts 351°
2026-05-08 14:56 50.58942 -1.26841 34039 ft 413 kts 349°
2026-05-08 14:56 50.64681 -1.27765 34039 ft 415 kts 349°
2026-05-08 14:57 50.70412 -1.28673 34039 ft 415 kts 349°
2026-05-08 14:57 50.76082 -1.29564 34042 ft 413 kts 349°
2026-05-08 14:58 50.81782 -1.30468 34048 ft 413 kts 349°
2026-05-08 14:58 50.87484 -1.31366 34051 ft 412 kts 349°
2026-05-08 14:59 50.93165 -1.32259 34052 ft 412 kts 349°
2026-05-08 14:59 51.01754 -1.33583 34052 ft 414 kts 349°
2026-05-08 15:00 51.07464 -1.34481 34054 ft 413 kts 349°
2026-05-08 15:00 51.13136 -1.35394 34049 ft 413 kts 349°
2026-05-08 15:01 51.18842 -1.36307 34051 ft 413 kts 349°
2026-05-08 15:01 51.24534 -1.37212 34053 ft 411 kts 349°
2026-05-08 15:02 51.30225 -1.38119 34052 ft 413 kts 349°
2026-05-08 15:02 51.35962 -1.39016 34052 ft 415 kts 349°
2026-05-08 15:03 51.41683 -1.39911 34050 ft 415 kts 349°
2026-05-08 15:03 51.47419 -1.40828 34051 ft 414 kts 349°
2026-05-08 15:04 51.53160 -1.41746 34055 ft 414 kts 349°
2026-05-08 15:04 51.58852 -1.42663 34059 ft 415 kts 349°
2026-05-08 15:05 51.64616 -1.43607 34059 ft 415 kts 349°
2026-05-08 15:05 51.70337 -1.44520 34058 ft 415 kts 349°
2026-05-08 15:06 51.76067 -1.45447 34062 ft 415 kts 349°
2026-05-08 15:06 51.81787 -1.46382 34056 ft 414 kts 349°
2026-05-08 15:07 51.87506 -1.47327 34060 ft 415 kts 349°
2026-05-08 15:07 51.93224 -1.48267 34054 ft 414 kts 349°
2026-05-08 15:08 51.97981 -1.49030 34055 ft 414 kts 349°
2026-05-08 15:08 52.04682 -1.50140 34052 ft 415 kts 349°
2026-05-08 15:09 52.10418 -1.51069 34051 ft 414 kts 349°
2026-05-08 15:09 52.16124 -1.52010 34048 ft 415 kts 349°
2026-05-08 15:10 52.21873 -1.52980 34049 ft 416 kts 349°
2026-05-08 15:10 52.27597 -1.53927 34048 ft 416 kts 349°
2026-05-08 15:11 52.33334 -1.54881 34053 ft 416 kts 349°
2026-05-08 15:11 52.39067 -1.55834 34052 ft 416 kts 349°
2026-05-08 15:12 52.44829 -1.56804 34059 ft 415 kts 349°
2026-05-08 15:12 52.50552 -1.57766 34054 ft 415 kts 349°
2026-05-08 15:13 52.56259 -1.58736 34056 ft 416 kts 349°
2026-05-08 15:13 52.61990 -1.59690 34061 ft 416 kts 349°
2026-05-08 15:14 52.67713 -1.60655 34057 ft 417 kts 348°
2026-05-08 15:14 52.73392 -1.61630 34053 ft 418 kts 349°
2026-05-08 15:15 52.79143 -1.62608 34062 ft 418 kts 349°
2026-05-08 15:15 52.84858 -1.63581 34053 ft 418 kts 349°
2026-05-08 15:16 52.90622 -1.64585 34053 ft 418 kts 348°
2026-05-08 15:16 52.96297 -1.65552 34058 ft 417 kts 348°
2026-05-08 15:17 53.02052 -1.66564 34044 ft 416 kts 347°
2026-05-08 15:17 53.07697 -1.68551 34050 ft 409 kts 335°
2026-05-08 15:18 53.12970 -1.71748 34051 ft 408 kts 333°
2026-05-08 15:18 53.18244 -1.75035 34051 ft 408 kts 333°
2026-05-08 15:19 53.23533 -1.78342 34051 ft 407 kts 333°
2026-05-08 15:19 53.28761 -1.81615 34051 ft 407 kts 334°
2026-05-08 15:20 53.34039 -1.84912 34046 ft 407 kts 333°
2026-05-08 15:20 53.39297 -1.88208 34046 ft 406 kts 333°
2026-05-08 15:21 53.44583 -1.91531 34048 ft 408 kts 333°
2026-05-08 15:21 53.49829 -1.94839 34047 ft 407 kts 333°
2026-05-08 15:22 53.55098 -1.98186 34048 ft 408 kts 333°
2026-05-08 15:22 53.60400 -2.01552 34049 ft 408 kts 333°
2026-05-08 15:23 53.65654 -2.04888 34055 ft 408 kts 333°
2026-05-08 15:23 53.70847 -2.08186 34054 ft 407 kts 333°
2026-05-08 15:24 53.76077 -2.11549 34056 ft 407 kts 332°
2026-05-08 15:24 53.81263 -2.15075 34056 ft 407 kts 331°
2026-05-08 15:25 53.86514 -2.18691 34054 ft 407 kts 332°
2026-05-08 15:25 53.91712 -2.22254 34060 ft 406 kts 332°
2026-05-08 15:26 53.96939 -2.25856 34053 ft 405 kts 332°
2026-05-08 15:26 54.02120 -2.29439 34057 ft 408 kts 331°
2026-05-08 15:27 54.07344 -2.33009 34052 ft 407 kts 331°
2026-05-08 15:27 54.12573 -2.36636 34051 ft 408 kts 331°
2026-05-08 15:28 54.17726 -2.40183 33996 ft 392 kts 331°
2026-05-08 15:28 54.20209 -2.41895 33619 ft 386 kts 330°
2026-05-08 15:28 54.22667 -2.43614 33155 ft 383 kts 330°
2026-05-08 15:29 54.25109 -2.45334 32691 ft 379 kts 330°
2026-05-08 15:29 54.27536 -2.47033 32230 ft 376 kts 331°
2026-05-08 15:29 54.29924 -2.48698 31771 ft 373 kts 330°
2026-05-08 15:29 54.32333 -2.50390 31310 ft 369 kts 330°
2026-05-08 15:30 54.34660 -2.52029 30862 ft 367 kts 330°
2026-05-08 15:30 54.37009 -2.53678 30415 ft 364 kts 331°
2026-05-08 15:30 54.39323 -2.55297 29961 ft 361 kts 331°
2026-05-08 15:30 54.41650 -2.56925 29523 ft 358 kts 331°
2026-05-08 15:31 54.43920 -2.58523 29076 ft 356 kts 331°
2026-05-08 15:31 54.46196 -2.60130 28635 ft 353 kts 331°
2026-05-08 15:31 54.48457 -2.61800 28176 ft 349 kts 328°
2026-05-08 15:31 54.50550 -2.63746 27750 ft 341 kts 320°
2026-05-08 15:32 54.52480 -2.66103 27311 ft 336 kts 316°
2026-05-08 15:32 54.54305 -2.68508 26884 ft 334 kts 315°
2026-05-08 15:32 54.56157 -2.70959 26451 ft 331 kts 315°
2026-05-08 15:32 54.57969 -2.73375 26035 ft 329 kts 316°
2026-05-08 15:33 54.59757 -2.75766 25630 ft 331 kts 315°
2026-05-08 15:33 54.61605 -2.78261 25203 ft 342 kts 316°
2026-05-08 15:33 54.63491 -2.80829 24747 ft 351 kts 316°
2026-05-08 15:33 54.65410 -2.83388 24287 ft 351 kts 316°
2026-05-08 15:34 54.67354 -2.85962 23844 ft 348 kts 316°
2026-05-08 15:34 54.69260 -2.88499 23424 ft 346 kts 316°
2026-05-08 15:34 54.71149 -2.91023 22974 ft 344 kts 316°
2026-05-08 15:34 54.73032 -2.93538 22540 ft 343 kts 316°
2026-05-08 15:35 54.74920 -2.96061 22101 ft 341 kts 316°
2026-05-08 15:35 54.76796 -2.98577 21664 ft 340 kts 316°
2026-05-08 15:35 54.78646 -3.01060 21229 ft 339 kts 317°
2026-05-08 15:35 54.80513 -3.03574 20793 ft 337 kts 317°
2026-05-08 15:36 54.82382 -3.06013 20347 ft 338 kts 321°
2026-05-08 15:36 54.84386 -3.08152 19912 ft 339 kts 326°
2026-05-08 15:36 54.86420 -3.10132 19481 ft 338 kts 326°
2026-05-08 15:36 54.88465 -3.12103 19046 ft 337 kts 326°
2026-05-08 15:37 54.90515 -3.14091 18612 ft 335 kts 327°
2026-05-08 15:37 54.92536 -3.16059 18181 ft 334 kts 327°
2026-05-08 15:37 54.94543 -3.18018 17758 ft 332 kts 327°
2026-05-08 15:37 54.96532 -3.19968 17336 ft 330 kts 327°
2026-05-08 15:38 54.98548 -3.21949 16915 ft 328 kts 327°
2026-05-08 15:38 55.00488 -3.23984 16564 ft 323 kts 322°
2026-05-08 15:38 55.02221 -3.26400 16169 ft 316 kts 310°
2026-05-08 15:38 55.03587 -3.29352 15768 ft 310 kts 301°
2026-05-08 15:39 55.04792 -3.32449 15352 ft 308 kts 300°
2026-05-08 15:39 55.05990 -3.35559 14948 ft 306 kts 301°
2026-05-08 15:39 55.07165 -3.38591 14543 ft 305 kts 301°
2026-05-08 15:39 55.08359 -3.41667 14137 ft 303 kts 301°
2026-05-08 15:40 55.09529 -3.44676 13745 ft 301 kts 301°
2026-05-08 15:40 55.10719 -3.47736 13336 ft 300 kts 301°
2026-05-08 15:40 55.11882 -3.50730 12941 ft 298 kts 301°
2026-05-08 15:40 55.13049 -3.53735 12544 ft 297 kts 301°
2026-05-08 15:41 55.14193 -3.56684 12155 ft 295 kts 301°
2026-05-08 15:41 55.15347 -3.59661 11763 ft 293 kts 301°
2026-05-08 15:41 55.16481 -3.62596 11376 ft 292 kts 301°
2026-05-08 15:41 55.17612 -3.65524 10990 ft 290 kts 300°
2026-05-08 15:42 55.18743 -3.68453 10604 ft 288 kts 300°
2026-05-08 15:42 55.19862 -3.71358 10222 ft 287 kts 300°
2026-05-08 15:42 55.20970 -3.74238 9908 ft 282 kts 300°
2026-05-08 15:42 55.22053 -3.77052 9588 ft 279 kts 300°
2026-05-08 15:43 55.23134 -3.79867 9233 ft 277 kts 300°
2026-05-08 15:43 55.24192 -3.82631 8877 ft 276 kts 300°
2026-05-08 15:43 55.25259 -3.85416 8518 ft 274 kts 301°
2026-05-08 15:43 55.26324 -3.88194 8160 ft 273 kts 301°
2026-05-08 15:44 55.27370 -3.90926 7808 ft 271 kts 301°
2026-05-08 15:44 55.28414 -3.93655 7454 ft 269 kts 301°
2026-05-08 15:44 55.29446 -3.96359 7087 ft 267 kts 301°
2026-05-08 15:44 55.30461 -3.99029 6729 ft 259 kts 301°
2026-05-08 15:45 55.31447 -4.01624 6304 ft 255 kts 301°
2026-05-08 15:45 55.32375 -4.04184 6077 ft 243 kts 297°
2026-05-08 15:45 55.33150 -4.06764 6059 ft 234 kts 295°
2026-05-08 15:45 55.33862 -4.09321 6050 ft 235 kts 292°
2026-05-08 15:46 55.34552 -4.11928 6055 ft 236 kts 292°
2026-05-08 15:46 55.35245 -4.14454 6040 ft 221 kts 296°
2026-05-08 15:46 55.35988 -4.16717 5979 ft 208 kts 298°
2026-05-08 15:46 55.36731 -4.18861 5900 ft 203 kts 298°
2026-05-08 15:47 55.37470 -4.20966 5826 ft 197 kts 299°
2026-05-08 15:47 55.38171 -4.22958 5569 ft 194 kts 299°
2026-05-08 15:47 55.38893 -4.25011 5151 ft 198 kts 300°
2026-05-08 15:47 55.39601 -4.27026 4842 ft 191 kts 300°
2026-05-08 15:48 55.40962 -4.30895 4213 ft 181 kts 302°
2026-05-08 15:48 55.41630 -4.32795 3900 ft 181 kts 302°
2026-05-08 15:48 55.42285 -4.34660 3605 ft 179 kts 302°
2026-05-08 15:49 55.42934 -4.36510 3319 ft 177 kts 302°
2026-05-08 15:49 55.43573 -4.38337 3033 ft 174 kts 302°
2026-05-08 15:49 55.44207 -4.40151 2749 ft 169 kts 302°
2026-05-08 15:49 55.44801 -4.41851 2466 ft 162 kts 303°
2026-05-08 15:50 55.45369 -4.43472 2287 ft 151 kts 302°
2026-05-08 15:50 55.45912 -4.45028 1969 ft 145 kts 303°
2026-05-08 15:50 55.46418 -4.46519 1739 ft 140 kts 302°
2026-05-08 15:50 55.46922 -4.47970 1557 ft 140 kts 302°
2026-05-08 15:51 55.47444 -4.49466 1323 ft 143 kts 302°
2026-05-08 15:51 55.47959 -4.50950 1075 ft 144 kts 301°
2026-05-08 15:51 55.48497 -4.52456 869 ft 142 kts 301°
2026-05-08 15:51 55.49005 -4.53930 634 ft 144 kts 300°
2026-05-08 15:52 55.49533 -4.55441 416 ft 144 kts 300°
2026-05-08 15:52 55.50061 -4.56940 194 ft 143 kts 299°
2026-05-08 15:52 55.50570 -4.58402 50 ft 123 kts 304°
2026-05-08 15:52 55.50882 -4.59293 46 ft 51 kts 302°
2026-05-08 15:53 55.51052 -4.59784 43 ft 45 kts 301°
2026-05-08 15:53 55.51206 -4.60235 39 ft 33 kts 301°
2026-05-08 15:53 55.51292 -4.60485 41 ft 17 kts 301°
2026-05-08 15:53 55.51338 -4.60663 42 ft 15 kts 282°
2026-05-08 15:54 55.51334 -4.60834 42 ft 13 kts 258°
2026-05-08 15:54 55.51320 -4.60975 41 ft 8 kts 240°
2026-05-08 15:54 55.51269 -4.60983 40 ft 8 kts 141°
2026-05-08 15:54 55.51236 -4.60900 40 ft 8 kts 122°
2026-05-08 15:55 55.51207 -4.60817 39 ft 7 kts 122°
2026-05-08 15:55 55.51147 -4.60741 38 ft 4 kts 205°
2026-05-08 15:55 55.51120 -4.60780 38 ft 4 kts 243°
2026-05-08 15:56 55.51124 -4.60835 38 ft 4 kts 298°
2026-05-08 15:56 55.51138 -4.60878 38 ft 3 kts 301°
2026-05-08 15:56 55.51142 -4.60889 38 ft 0 kts 301°